Location: �perlecques
(50.8057°N, 2.1521°E)
Time: 23:38:47
(UTC+00:00)

Cosmos 1697 Rocket - Pass Details

Date: 09 April 2020
Orbit: 831 x 845 km, 71.0° (Epoch: 29 May)

Event Time Altitude Azimuth Distance (km) Brightness Sun altitude
Rises 22:49:30 0° 320° (NW) 3,413 6.9 -29.6°
Reaches altitude 10° 22:52:34 10° 304° (NW) 2,474 5.7 -29.7°
Maximum altitude 22:56:30 20° 260° (W) 1,879 4.5 -29.9°
Enters shadow 22:56:36 20° 259° (WSW) 1,879 4.5 -29.9°
